Theta_e
351 352 353 353 352 352 351 352 353 355 355 354 354 353 353 354 354 353 353 353 353 354 353 353 351 350 348 346 344 343 344 344 345 346 347 347 348 349 348 348 347 346 347 345 346 346 346 346 347 347 346 346 346 349 351 352 351 351 352 352 350 350 349 349 349 349 350 352 352 352 351 351 351 350 351 351 350 348 347 347 348 350 350 349 349
351 352 352 352 352 353 348 345 347 349 351 352 353 354 354 355 354 353 353 352 352 352 351 350 349 347 345 345 345 345 346 347 349 349 348 349 349 349 349 349 348 347 346 346 346 347 348 348 348 349 349 348 348 349 351 351 351 351 352 351 349 350 351 350 350 350 351 352 351 352 352 350 350 350 350 350 350 348 347 347 350 350 348 348 349
351 351 352 352 353 352 346 342 342 343 342 343 345 347 349 350 351 351 351 350 350 349 348 346 346 346 345 345 347 349 350 351 351 351 351 351 350 349 349 349 348 346 345 345 346 347 349 350 350 350 350 349 349 349 351 351 351 351 351 351 350 351 351 350 350 350 351 352 351 351 351 349 350 351 350 350 350 350 348 348 350 349 348 349 350
351 351 350 351 352 350 347 346 345 346 344 341 340 340 340 340 343 345 346 346 347 345 345 346 347 346 343 345 348 349 351 351 352 352 351 350 350 350 350 351 350 348 347 346 345 347 350 351 351 350 350 350 351 350 350 351 351 351 351 351 351 351 351 350 350 349 350 351 351 351 352 350 351 351 351 351 351 351 350 349 348 348 348 349 350
351 351 350 351 350 348 347 348 347 348 348 348 347 345 343 340 341 342 343 343 344 345 347 350 349 345 343 346 348 348 349 351 351 352 350 349 350 350 351 351 351 350 350 347 345 348 351 351 351 351 351 350 351 350 350 350 351 350 350 350 350 351 350 349 349 350 350 350 350 351 353 352 351 351 351 351 352 352 349 348 348 348 348 348 348
352 351 350 350 350 349 348 349 349 349 349 350 349 349 349 347 348 348 348 348 348 349 352 352 347 345 346 347 347 348 350 350 350 351 350 350 351 351 351 351 351 350 350 348 347 349 350 350 350 350 350 350 349 349 349 349 350 350 349 348 349 350 350 349 348 350 350 349 349 351 353 353 352 351 351 352 352 351 350 349 349 349 348 347 347
351 352 351 350 350 349 348 350 350 350 349 349 349 349 349 350 350 351 351 351 352 353 353 351 346 346 347 347 347 349 350 349 349 351 350 350 351 351 351 351 351 350 349 348 347 348 349 349 349 350 350 350 349 349 348 348 348 348 348 347 347 348 349 348 347 348 349 349 350 351 352 352 352 351 351 352 351 351 349 349 349 349 348 347 346
351 352 350 350 350 348 349 351 351 350 350 350 349 349 350 350 350 351 352 352 353 353 351 349 347 347 348 347 348 349 349 348 349 350 351 351 351 352 351 351 351 351 350 347 347 347 348 349 350 349 349 349 349 349 348 348 347 348 348 348 347 347 348 348 347 348 349 349 349 350 350 351 352 351 351 351 351 350 349 349 349 348 346 345 345
351 352 349 350 350 348 350 350 351 351 351 351 351 352 352 351 352 352 352 353 354 354 351 348 347 348 348 348 348 348 347 348 350 350 351 351 351 351 350 351 351 351 350 347 347 347 347 350 351 349 349 348 349 348 347 347 347 348 349 348 347 346 347 346 347 349 349 349 349 350 350 350 351 351 350 351 350 350 350 350 349 346 344 343 343
351 351 349 349 349 349 350 350 351 351 351 351 351 353 353 352 353 352 353 354 354 353 352 348 347 348 348 347 347 347 347 348 350 351 351 351 351 351 351 351 350 350 349 347 347 347 347 349 350 349 349 349 350 349 347 347 348 349 348 348 347 345 345 344 346 349 349 349 348 350 350 350 351 350 350 350 350 349 349 349 348 345 343 342 342
351 351 349 349 349 349 350 350 351 351 350 351 351 352 352 352 353 353 353 353 353 352 351 349 347 348 348 347 347 347 349 350 351 351 351 351 351 351 351 350 350 351 350 348 347 347 348 349 350 349 347 349 350 349 348 348 350 350 349 349 347 344 342 343 346 348 349 350 349 350 350 350 351 350 350 349 349 349 348 346 346 345 342 341 342
351 351 350 348 349 350 350 351 351 351 350 351 351 351 352 352 352 353 353 353 353 352 352 350 348 349 349 348 349 349 350 351 352 351 351 351 352 351 351 350 351 351 351 350 348 347 349 350 351 349 348 348 349 349 349 350 351 351 350 349 346 343 342 344 347 347 348 350 350 350 350 351 351 350 349 348 349 349 348 346 345 345 342 341 341
351 351 349 348 349 350 350 351 351 350 351 351 351 350 351 352 352 352 352 352 353 353 353 352 351 350 350 350 350 351 351 352 352 352 352 352 351 351 351 351 351 350 350 350 348 346 348 350 350 350 350 350 350 350 350 350 351 350 350 348 345 344 344 345 347 347 347 348 349 349 350 352 350 349 349 348 348 348 346 345 345 344 342 341 341
351 350 350 350 350 350 350 351 350 350 351 351 350 349 350 351 351 352 351 351 352 352 353 353 352 351 351 351 351 351 351 352 351 351 350 351 351 351 351 350 349 349 350 350 348 346 348 349 347 349 350 351 351 350 350 350 350 350 350 348 345 343 343 345 347 347 347 347 348 349 350 351 348 348 348 348 348 346 345 345 345 344 342 341 341
350 350 350 350 351 350 349 350 350 351 350 350 350 350 350 350 351 351 351 352 352 352 352 352 351 351 351 351 351 351 351 351 351 350 349 350 351 351 351 349 348 349 350 349 347 346 347 348 346 348 349 350 350 349 350 349 349 351 349 348 345 342 343 346 347 347 348 348 348 349 351 349 347 347 347 347 347 346 346 345 344 343 342 342 342
350 350 350 350 351 350 349 350 350 351 350 350 350 350 350 350 351 351 351 352 352 352 351 351 351 352 351 351 351 352 351 351 350 349 348 349 349 350 350 349 348 349 350 349 347 346 347 348 348 348 349 349 349 349 350 350 349 350 349 347 345 341 342 345 347 348 348 348 347 349 350 348 347 347 347 347 346 346 346 346 345 344 343 343 343
350 351 351 350 351 351 350 350 350 350 350 350 350 350 351 350 350 351 352 351 351 351 351 351 351 352 351 351 351 351 352 351 349 349 348 347 347 347 348 348 348 349 349 349 348 347 348 349 348 348 349 349 350 350 350 349 348 349 349 348 346 342 342 345 347 348 348 348 347 348 350 349 347 348 348 347 347 347 346 346 346 345 343 344 344
351 352 351 350 351 352 351 351 350 350 349 350 350 350 351 350 351 352 351 351 351 351 351 351 351 351 351 351 351 351 353 352 350 349 347 346 346 347 347 348 348 349 350 349 349 348 348 349 348 347 349 350 350 350 349 349 349 349 349 348 346 343 341 344 348 347 346 347 347 347 348 347 347 347 347 347 347 348 347 347 346 345 344 344 345
352 352 352 351 351 352 351 351 350 349 349 350 350 350 351 350 350 351 350 350 351 351 352 352 351 350 351 351 351 351 351 351 350 349 347 346 346 346 346 346 347 349 349 349 350 350 349 350 348 347 349 350 350 349 349 350 350 351 350 348 346 344 342 345 346 346 346 347 348 348 346 346 346 347 347 347 347 347 347 347 347 345 345 344 345
352 352 352 350 351 351 350 350 350 349 350 351 350 351 351 349 350 350 349 349 350 351 352 351 351 351 351 351 351 350 350 351 351 350 348 347 347 346 345 345 346 347 348 348 350 351 351 351 350 348 349 349 349 350 350 350 350 351 351 348 345 345 346 346 345 345 346 346 348 347 344 345 346 346 347 347 347 346 346 347 347 346 345 343 345
352 351 351 350 350 350 349 350 349 349 350 351 351 351 350 350 350 349 348 349 349 350 351 350 351 351 350 349 349 349 349 350 351 351 349 349 348 348 347 347 348 347 347 347 349 351 351 351 351 349 349 348 350 351 350 350 350 350 350 347 346 347 347 346 345 346 346 345 347 346 343 345 345 346 346 346 346 346 346 346 346 346 345 344 345
352 351 350 350 350 349 349 349 349 349 349 350 351 351 350 350 349 348 348 348 349 349 351 351 351 351 349 347 347 348 348 349 349 350 349 350 350 349 348 348 348 347 346 345 346 348 348 350 351 350 350 349 350 350 350 349 350 349 348 347 347 347 346 346 346 346 345 346 347 344 342 344 344 345 345 345 345 345 345 345 345 345 345 345 345
353 352 351 350 350 349 348 349 349 348 349 349 350 350 350 350 349 349 348 348 349 350 351 350 349 350 348 345 347 347 348 349 349 349 349 349 350 348 348 348 347 347 347 347 346 346 347 349 350 350 350 349 350 351 350 351 351 350 349 349 348 346 345 345 346 347 346 346 346 343 343 343 343 344 344 343 343 343 342 343 344 345 345 345 345
353 352 352 351 350 349 349 349 349 349 348 348 350 350 350 349 349 349 349 349 349 350 351 349 348 349 347 345 346 347 349 349 348 349 349 350 350 349 348 347 346 346 347 348 348 348 347 347 347 347 348 349 350 351 351 352 352 351 351 350 348 347 346 346 346 347 346 345 344 343 343 343 343 343 343 342 341 340 340 340 342 344 345 346 346
353 352 353 351 351 350 349 349 349 349 348 349 350 350 349 349 349 348 349 349 349 350 350 348 348 347 346 347 346 346 348 349 348 349 350 350 351 351 351 347 344 346 346 347 350 351 350 349 347 346 347 348 349 350 351 352 351 352 351 349 348 348 348 348 347 346 346 345 344 344 344 344 344 343 343 342 340 339 338 338 339 341 344 345 346
353 352 352 351 351 351 350 349 349 349 349 349 350 349 348 348 348 348 348 348 348 348 349 348 347 345 345 345 345 344 345 348 347 349 350 350 352 352 353 350 347 347 348 350 351 351 351 350 348 347 347 348 348 348 348 349 350 352 351 349 348 348 349 349 348 346 345 345 344 344 345 345 345 345 344 344 342 339 339 338 338 339 341 343 345
352 353 352 351 350 351 351 350 349 349 349 349 349 348 347 348 347 346 348 349 348 348 349 349 345 343 343 342 344 346 346 347 345 346 347 349 352 351 351 352 352 351 351 352 352 350 350 350 349 348 348 349 349 348 347 347 348 350 351 350 348 349 349 349 348 346 344 344 345 344 345 345 345 345 346 345 344 342 340 340 339 338 338 340 342
353 353 352 351 350 350 350 351 350 350 350 349 349 349 348 348 348 347 348 349 348 349 349 346 343 344 345 342 345 348 349 348 346 345 345 346 349 350 349 351 352 352 350 351 352 351 351 351 351 350 350 351 350 350 349 349 348 348 350 350 349 349 348 348 348 346 344 344 345 345 345 345 344 345 345 345 346 344 343 343 342 340 338 338 339
352 352 352 351 350 350 350 350 350 351 351 351 351 351 349 350 350 349 349 348 348 349 344 341 342 347 348 344 346 350 351 351 349 348 347 344 345 347 350 351 352 351 351 352 352 352 352 352 352 352 351 351 351 351 350 350 350 348 349 349 350 349 347 348 346 346 345 343 344 346 345 345 345 345 345 345 346 345 345 345 344 342 340 338 339
352 352 352 352 351 350 350 350 350 351 351 351 351 351 351 351 350 350 350 348 349 349 341 340 344 348 350 348 349 351 352 353 352 350 349 348 345 346 350 351 351 351 351 352 351 351 353 353 353 353 352 351 352 351 350 351 350 348 347 346 348 349 348 347 347 346 346 342 343 346 346 345 345 346 345 345 346 346 347 346 345 345 344 342 340
351 352 352 352 352 350 350 350 350 350 350 351 351 350 351 350 350 350 350 349 350 349 342 341 344 348 350 349 349 350 350 352 352 351 351 352 350 349 351 351 353 352 351 352 351 351 353 353 353 353 352 351 351 350 350 351 350 348 345 343 343 346 346 347 348 348 348 345 342 344 346 346 346 347 346 346 347 347 347 347 346 346 346 345 343
351 351 352 352 352 350 350 350 349 350 349 350 351 350 351 350 350 350 350 349 348 347 343 339 340 346 349 348 349 349 349 350 350 350 350 352 353 353 352 352 353 352 350 350 350 350 352 352 351 351 350 350 352 350 349 350 350 347 344 342 340 342 344 345 348 349 348 346 341 342 346 348 348 347 346 347 348 347 346 347 347 346 346 347 346
351 351 351 351 351 351 350 349 349 349 349 350 350 350 350 350 350 350 349 348 347 344 341 338 337 343 348 349 349 349 349 349 348 348 348 350 351 351 352 352 352 351 350 349 349 350 352 353 352 351 351 352 353 352 350 350 349 347 344 343 339 340 342 344 348 349 348 347 343 342 344 346 349 348 347 347 348 348 347 346 347 347 346 347 347
352 351 351 351 351 351 351 350 349 349 348 349 350 350 349 349 349 349 349 347 347 345 340 337 336 340 346 348 350 349 350 350 349 348 348 349 349 349 351 351 350 349 350 349 350 351 352 354 354 353 354 353 354 352 352 351 348 348 345 342 341 339 341 346 348 347 347 347 344 343 343 344 347 349 349 348 347 346 346 346 347 348 347 347 346
351 351 351 351 351 351 351 350 349 349 347 346 347 347 348 348 347 346 346 346 346 344 340 339 337 338 342 346 349 350 350 350 350 349 349 350 350 349 350 350 350 349 350 349 350 351 352 354 354 354 355 354 354 353 352 351 349 348 344 342 342 339 342 347 346 346 347 346 343 342 342 343 345 347 348 349 349 347 345 346 347 348 347 347 347
352 352 352 351 351 351 351 351 350 349 346 343 343 345 344 343 342 341 340 341 342 340 339 341 340 339 341 345 349 350 350 350 350 351 351 351 350 350 350 350 350 350 350 349 349 351 351 353 353 353 355 355 354 354 353 351 350 348 344 342 341 338 342 345 345 347 347 345 344 342 341 342 343 343 344 348 349 348 346 345 346 347 347 347 347
352 352 352 351 352 351 351 351 351 349 345 341 340 340 339 339 339 338 337 337 338 339 339 340 340 341 344 347 349 350 350 350 351 352 352 351 350 350 350 350 350 350 350 350 351 350 351 353 352 352 353 354 354 354 353 351 350 347 343 342 341 338 340 342 343 346 344 342 342 342 342 342 341 341 343 347 348 347 346 345 344 345 346 346 347
352 352 352 352 352 351 351 351 351 350 346 341 337 335 336 337 338 337 337 336 337 338 339 338 338 342 347 349 350 350 350 351 352 352 352 351 350 350 350 351 351 351 351 351 352 351 351 353 353 352 352 352 352 353 353 351 349 347 343 341 339 337 338 339 341 342 343 344 342 340 342 341 342 342 342 344 345 346 347 345 344 345 346 346 346
352 352 352 352 352 352 351 351 351 351 347 343 340 338 336 337 338 338 337 337 336 337 338 337 337 342 348 350 350 351 351 351 351 352 352 352 351 350 351 352 351 351 351 351 353 353 352 353 354 354 352 351 351 352 354 352 348 346 342 340 337 337 338 338 340 341 343 346 342 341 343 342 342 342 340 340 342 344 345 345 345 346 347 346 345
352 351 352 352 352 351 351 351 351 350 348 346 345 343 341 339 340 340 339 337 336 336 336 336 338 342 348 350 350 350 350 351 351 352 352 351 351 351 352 352 351 352 351 352 354 354 353 353 354 354 353 352 351 351 352 350 347 345 341 339 337 336 338 338 340 341 343 344 342 343 345 345 344 343 342 341 341 342 342 343 344 345 346 346 344
352 351 352 352 352 351 351 351 351 349 348 347 347 346 344 342 342 343 342 340 337 335 335 335 338 343 348 350 350 350 350 350 351 351 351 352 351 352 352 352 352 352 352 353 354 354 353 353 354 354 354 354 353 351 350 348 347 345 342 343 341 338 338 339 340 342 343 344 343 342 344 346 347 345 344 342 339 340 340 340 342 343 345 345 345
352 352 352 352 352 351 351 351 350 349 348 346 346 345 343 340 339 340 342 343 339 335 338 337 337 344 348 349 349 350 350 350 350 351 350 351 351 351 352 352 353 353 353 353 352 353 353 353 354 356 355 355 355 352 349 348 347 345 344 345 345 341 340 341 343 344 344 345 344 344 344 344 346 347 345 343 340 339 339 340 341 341 342 343 345
352 352 351 352 352 352 351 351 350 348 347 346 345 343 340 337 335 335 338 343 342 337 340 339 337 343 348 349 349 349 350 351 350 350 351 351 351 351 352 352 353 353 354 353 353 353 354 354 355 357 357 356 356 354 351 349 346 345 344 344 344 343 343 344 345 345 345 346 345 345 346 344 345 345 343 344 345 342 339 338 339 339 339 340 342
353 352 352 352 352 352 351 351 350 348 347 346 344 343 341 338 335 335 336 340 341 338 337 336 336 343 348 349 349 350 351 351 351 351 351 351 351 351 351 352 352 352 353 353 353 353 354 355 356 357 357 356 356 355 354 353 348 345 345 344 343 342 342 343 343 344 343 344 345 344 345 345 346 344 340 344 346 343 339 337 336 337 337 338 339
353 352 352 351 352 352 351 351 349 348 347 345 344 344 344 342 341 341 341 341 342 341 340 339 337 342 348 349 349 350 350 351 351 351 351 351 351 351 351 352 352 352 352 353 354 354 355 356 356 357 357 356 356 355 355 354 349 344 345 345 343 342 342 340 340 343 342 341 343 344 344 345 346 345 341 342 342 338 340 339 335 335 336 337 338
353 352 352 351 351 352 352 351 350 348 347 346 345 345 345 344 344 345 346 346 346 345 342 340 338 341 348 350 349 349 350 350 351 352 351 351 351 351 351 351 352 352 352 352 353 354 355 356 356 356 358 357 356 356 356 355 352 346 344 343 342 343 344 342 341 343 343 341 340 342 343 344 345 345 342 342 342 339 339 338 336 336 336 335 337
353 353 352 352 351 352 352 351 350 349 348 347 347 346 346 346 343 344 347 347 348 347 339 337 340 341 345 348 348 348 349 350 351 351 351 351 351 351 351 351 351 352 352 352 352 355 356 356 355 355 357 357 357 357 356 356 354 350 348 345 344 345 345 344 343 343 344 344 342 341 341 342 343 344 343 344 346 345 341 337 337 337 337 336 336
353 353 352 352 352 352 352 351 351 350 349 348 347 346 346 346 344 345 348 346 346 346 342 341 342 339 341 347 347 347 349 349 350 351 350 351 351 351 351 351 351 351 351 351 352 354 355 354 353 354 355 356 356 358 357 356 354 351 350 350 349 348 347 346 344 343 344 345 344 342 341 340 340 341 343 344 346 346 343 339 337 337 337 336 334
352 352 352 352 352 352 352 351 351 351 350 349 347 347 346 345 345 347 349 347 345 346 346 346 345 341 342 346 346 348 349 349 350 350 350 350 351 351 352 351 351 349 348 350 352 352 352 353 353 353 354 356 357 357 358 358 356 353 351 351 350 349 348 347 345 344 344 344 344 343 342 341 340 341 339 339 342 344 343 340 338 337 337 336 334
352 352 352 352 352 352 352 352 351 352 351 349 347 347 347 346 346 347 349 348 347 348 348 349 348 345 346 347 347 347 348 349 350 350 350 350 351 351 352 351 351 350 348 348 349 348 350 352 352 353 354 356 357 357 357 359 358 356 354 352 352 350 349 348 345 344 344 344 343 341 340 340 340 343 341 337 338 340 340 340 338 338 338 336 335
352 352 352 352 352 352 352 352 352 352 352 350 349 349 348 348 347 347 347 348 348 349 350 351 350 348 349 350 348 348 348 349 350 350 350 350 350 350 351 351 352 351 349 347 346 348 352 352 351 352 354 354 357 357 358 359 359 358 356 354 353 351 349 348 346 346 345 344 344 342 340 341 340 342 342 337 336 337 337 337 337 338 338 336 336
Wind_Speed
15 16 18 17 19 18 16 17 18 20 21 20 20 19 18 17 17 16 16 16 16 16 17 16 16 15 15 14 14 13 13 12 12 12 12 12 11 11 11 11 12 12 11 11 10 10 10 10 10 10 10 10 10 10 10 10 11 12 12 12 13 13 13 13 13 13 13 12 12 12 12 13 14 15 16 15 15 16 16 16 15 14 14 14 14
16 17 18 17 18 17 17 17 17 19 19 20 19 19 18 18 17 16 16 16 17 17 17 17 16 15 14 14 13 13 12 12 12 12 12 12 12 12 11 11 11 11 11 11 10 10 10 10 10 10 9 10 10 10 11 11 12 12 12 12 13 13 12 12 12 12 12 11 12 12 11 12 13 13 16 16 14 15 15 15 14 14 14 14 14
17 18 18 18 18 16 17 17 17 17 17 18 18 18 18 18 17 17 17 17 17 17 17 17 16 15 14 14 14 14 13 13 12 11 12 12 12 12 12 12 11 11 11 10 11 11 11 10 10 10 10 10 10 11 12 13 13 13 13 12 12 12 11 11 11 11 10 10 11 12 11 11 12 12 15 15 14 14 14 13 13 14 15 15 14
18 18 18 18 18 17 17 17 17 16 16 17 18 18 18 18 18 18 18 18 17 18 18 17 15 14 14 14 15 14 13 13 12 12 12 12 11 11 12 12 11 11 11 10 11 11 11 10 10 10 11 12 12 12 13 14 14 13 13 12 11 11 11 9 9 9 9 10 11 12 11 10 11 12 14 14 14 14 14 13 14 16 16 16 16
19 19 18 17 17 17 17 17 16 16 16 16 16 17 17 18 18 18 18 17 17 18 18 17 15 13 13 14 14 14 14 13 12 11 11 11 11 11 11 11 11 12 11 11 11 11 11 10 11 12 13 13 13 14 14 14 14 13 12 11 11 11 10 9 9 8 9 10 10 13 12 11 11 11 13 13 13 13 14 14 15 16 17 17 17
18 18 18 17 17 16 17 17 17 16 16 16 16 16 16 17 17 17 16 17 17 18 18 17 14 12 11 12 13 13 13 13 11 11 11 11 10 10 10 10 11 11 11 11 12 11 11 12 12 14 14 14 14 15 14 14 14 12 11 11 11 10 10 10 9 9 10 11 11 12 12 12 12 13 12 13 13 13 14 14 15 16 17 17 17
18 17 18 17 17 17 17 17 17 17 16 16 16 16 16 16 16 16 16 15 15 17 19 16 13 12 11 11 12 12 12 11 10 11 11 10 9 9 9 10 10 11 12 12 11 10 11 13 14 14 14 15 14 14 13 14 13 12 11 10 10 10 10 10 9 9 10 11 10 10 11 12 12 13 13 12 13 14 15 15 15 16 17 16 15
18 17 18 18 17 18 18 17 17 17 17 17 17 16 17 16 16 15 15 15 14 18 19 15 12 13 12 10 11 11 11 11 10 11 11 10 9 8 8 9 10 11 12 12 11 9 12 15 14 13 14 14 13 11 12 13 13 13 11 10 10 10 10 10 9 10 10 10 10 9 10 12 11 12 12 12 13 14 15 15 15 16 16 15 14
19 18 19 18 17 18 17 17 16 16 16 16 16 16 16 16 15 15 15 15 16 18 18 13 12 13 12 11 11 11 11 11 10 10 10 9 9 8 9 9 10 11 11 13 11 9 12 15 14 13 13 14 12 10 10 12 14 13 11 10 10 10 9 10 10 10 10 10 10 10 10 12 11 11 12 12 13 14 14 14 15 16 15 14 14
20 18 19 18 18 18 17 17 16 16 16 15 15 15 15 15 15 15 15 15 16 17 16 12 12 13 11 11 12 12 11 11 10 10 10 9 9 9 9 9 10 10 11 13 12 10 12 13 13 12 13 13 11 10 10 13 13 12 11 11 10 9 9 9 10 10 10 11 11 11 10 12 11 11 12 12 13 13 13 14 15 15 14 14 14
20 18 19 18 18 17 17 16 16 16 15 15 14 14 15 15 15 14 14 14 15 16 15 11 11 13 11 11 12 12 11 11 11 10 10 9 9 9 9 9 10 10 11 12 12 12 11 12 12 12 12 12 11 10 10 12 12 11 11 11 10 9 9 9 10 10 12 12 12 11 11 12 11 11 12 11 12 13 14 15 15 14 14 14 14
20 19 18 19 18 17 17 16 16 16 15 15 14 14 14 15 14 14 14 14 14 15 14 12 11 13 12 12 12 12 11 11 10 10 9 9 9 9 9 9 9 10 10 11 12 13 12 12 12 12 12 11 11 11 11 11 11 11 11 10 10 9 9 9 10 10 12 12 12 11 11 11 11 11 11 11 12 12 13 15 15 14 13 14 14
21 19 18 19 17 17 16 15 15 15 15 15 14 14 14 14 14 14 14 14 14 14 14 13 12 12 12 12 12 11 11 11 10 10 9 9 9 9 9 8 9 9 10 10 11 12 13 12 11 11 11 11 11 12 12 11 11 11 11 10 10 9 9 9 10 10 10 11 12 11 11 10 11 11 11 10 11 12 13 14 14 14 13 13 12
22 20 19 18 17 17 16 15 15 15 15 14 14 14 13 13 13 13 13 14 14 13 13 13 12 12 12 11 11 11 11 11 11 10 9 9 9 9 8 9 9 10 10 10 11 12 12 12 11 10 10 10 11 12 12 12 12 11 11 10 9 9 9 10 10 10 10 11 11 12 11 11 11 11 10 10 11 12 12 13 14 13 12 12 11
22 20 19 18 17 17 16 15 15 15 15 15 14 13 13 13 13 13 13 13 13 13 12 12 12 12 12 11 11 11 11 11 10 9 9 9 9 9 9 10 9 9 10 10 11 11 12 11 9 9 9 11 11 12 12 12 11 11 10 10 9 9 9 9 9 10 10 11 11 11 11 11 11 11 11 11 11 11 11 11 12 13 11 11 11
21 20 18 18 17 16 15 14 15 14 15 15 14 13 12 12 13 13 13 13 12 12 12 12 12 12 12 12 12 11 11 11 10 9 9 10 10 10 10 11 10 9 10 10 10 11 11 10 9 9 10 11 11 11 11 11 10 10 10 9 9 9 10 10 9 9 10 10 11 11 10 10 10 10 10 10 11 11 10 10 11 11 11 10 10
21 19 17 18 17 16 15 14 14 14 15 14 13 12 12 12 12 12 12 12 12 12 11 12 12 13 13 13 13 12 11 11 11 10 11 11 12 12 12 11 11 10 10 10 10 10 11 10 9 9 9 10 11 10 11 10 9 9 8 8 9 9 9 10 10 9 9 9 10 11 10 9 9 9 9 9 10 10 10 10 10 10 10 9 9
20 19 17 18 17 16 15 14 14 15 15 14 13 12 12 12 12 12 12 12 12 12 11 12 13 13 13 12 12 12 11 10 11 12 12 12 12 13 12 12 11 11 10 10 10 10 9 9 8 9 9 10 10 10 10 9 9 8 7 8 9 8 9 9 9 9 9 9 10 11 10 10 10 9 9 8 8 9 9 9 9 9 8 9 9
19 18 17 17 17 16 16 14 14 15 15 14 13 12 12 13 12 12 12 12 12 11 11 11 12 12 12 12 11 12 11 10 11 12 12 13 13 13 13 12 12 11 11 10 10 9 8 8 8 8 8 9 9 9 9 8 9 8 7 9 8 8 8 8 8 8 9 9 9 10 10 10 10 9 9 8 8 8 7 7 8 9 7 8 9
18 18 17 17 17 17 16 15 15 15 14 13 13 13 13 13 12 12 12 12 12 11 11 11 11 11 11 11 11 12 11 10 10 10 11 12 12 13 12 12 11 11 11 10 10 9 8 7 8 8 7 8 8 8 8 8 9 8 7 8 9 8 7 6 7 7 8 8 9 9 9 9 9 8 8 8 8 7 6 5 6 7 7 7 7
20 18 17 18 17 16 16 15 15 15 14 14 13 13 13 13 12 12 12 12 11 12 12 11 11 11 11 11 11 11 11 11 11 10 10 11 11 11 11 11 10 10 10 9 9 9 8 8 7 7 6 7 7 8 9 9 9 8 7 8 9 7 6 6 5 6 6 7 7 8 9 9 8 8 7 7 8 7 7 5 5 5 5 5 6
21 20 18 18 18 17 16 15 16 15 14 13 13 13 13 13 12 12 12 12 12 12 11 11 11 10 10 10 10 10 11 11 10 10 10 10 10 10 10 10 10 9 9 9 9 8 8 8 7 6 6 6 7 8 9 9 8 7 7 8 8 7 6 5 5 5 5 5 6 7 8 8 7 7 7 6 6 6 6 6 5 5 4 4 5
21 20 18 18 18 18 17 16 16 15 15 14 13 13 13 13 12 12 12 12 12 11 10 10 10 10 9 9 9 9 10 10 9 10 10 11 10 10 10 9 9 9 8 8 8 8 8 8 7 6 6 6 7 7 7 7 7 6 6 6 6 7 6 6 4 4 4 4 4 5 6 6 6 6 6 6 6 6 5 5 6 5 4 4 4
21 19 18 17 17 18 18 16 16 16 15 14 14 13 13 13 12 12 12 12 11 11 10 10 10 9 9 9 8 9 8 8 8 9 9 9 9 9 9 8 8 7 7 7 7 7 7 7 7 6 6 6 6 6 6 6 6 5 5 5 5 6 6 6 4 3 2 3 3 4 5 5 5 5 5 5 5 5 5 5 5 5 4 4 3
21 19 18 18 18 17 18 17 17 16 16 15 14 13 14 13 12 12 12 11 11 11 10 10 9 9 9 8 8 9 8 7 7 7 6 7 7 7 6 6 7 7 6 6 6 6 6 6 7 6 6 6 6 6 5 4 4 5 5 5 5 5 5 5 4 3 2 2 2 3 4 3 3 4 4 4 4 5 5 5 5 5 4 4 3
20 19 18 18 18 17 17 18 18 17 16 15 14 13 14 13 13 12 12 11 11 11 10 9 9 9 9 9 9 9 8 7 6 5 5 5 5 5 5 4 5 5 5 4 4 5 5 6 6 6 7 6 5 5 5 4 3 3 3 4 4 4 4 3 3 3 2 2 3 3 4 3 3 3 2 2 3 4 4 4 5 5 4 4 4
20 19 19 18 18 18 17 17 18 18 16 15 15 14 14 13 13 13 12 11 11 10 9 9 10 10 11 10 9 7 7 6 6 6 5 4 4 4 5 4 3 3 3 3 3 4 5 5 6 6 6 5 4 4 4 4 3 2 1 2 3 3 3 3 2 2 2 2 3 4 4 4 4 3 3 2 2 2 3 3 4 4 4 3 4
20 20 20 19 19 19 18 17 17 17 15 14 14 14 14 13 13 12 11 10 10 9 9 10 11 11 11 11 9 7 6 6 6 5 5 4 4 4 4 4 3 3 3 3 2 4 5 5 5 5 5 4 4 4 4 4 5 4 2 2 2 1 2 2 2 2 1 1 3 4 4 4 4 4 4 3 3 2 1 2 3 3 3 3 3
22 21 20 19 19 19 19 18 17 17 15 14 14 13 13 13 12 11 10 10 10 9 10 11 11 10 10 11 9 7 6 5 6 5 5 5 4 4 4 3 3 3 3 3 3 4 4 4 4 3 3 4 4 4 4 4 4 5 4 3 3 2 1 1 1 2 1 1 3 4 5 5 4 4 4 4 4 3 2 1 1 1 2 2 2
23 22 20 20 19 19 19 18 18 16 15 14 14 13 12 12 12 11 10 10 9 9 11 11 10 10 9 10 9 7 6 5 5 5 5 4 4 4 3 3 2 2 2 2 4 4 3 3 3 3 2 3 3 3 3 4 3 5 6 5 3 2 2 1 0 1 0 1 3 4 5 5 4 4 4 3 4 4 3 3 2 2 2 2 2
23 22 21 20 20 20 20 19 18 16 15 15 14 14 12 12 12 11 10 10 9 9 11 11 11 10 9 10 8 7 7 5 5 5 4 3 3 3 3 3 2 2 2 2 3 4 3 3 3 3 2 2 1 2 2 2 3 5 7 7 4 2 3 2 1 1 1 1 2 4 4 4 4 4 4 4 5 4 4 4 3 3 3 2 2
24 24 22 21 21 21 20 19 18 16 16 16 15 14 13 12 12 11 10 10 9 9 12 13 12 12 11 10 9 8 7 6 5 5 4 3 3 3 3 3 2 2 2 2 3 2 2 2 2 2 2 2 1 1 1 1 2 4 6 6 6 2 2 2 2 1 1 0 1 3 4 4 4 5 5 5 5 4 4 4 4 4 4 4 3
24 24 22 22 22 21 21 20 19 17 16 17 16 15 13 12 12 12 10 10 10 11 13 13 13 12 11 10 9 8 7 6 5 4 4 3 2 2 2 2 2 2 2 2 2 2 1 1 1 2 2 2 1 1 1 1 1 3 4 5 7 5 2 2 2 2 1 0 1 2 4 4 4 4 5 5 5 4 5 5 5 5 5 5 4
23 23 23 23 22 21 21 20 20 19 18 18 16 15 14 13 13 12 10 10 11 12 14 14 13 12 11 10 9 8 7 6 5 4 4 3 2 2 2 2 2 3 3 2 2 1 1 0 1 1 2 2 1 1 1 1 1 2 4 5 7 6 2 2 2 1 0 1 1 1 3 4 3 4 4 5 5 5 6 6 5 5 5 5 4
23 24 25 24 22 21 21 20 20 21 20 21 19 18 17 15 15 14 12 12 12 13 14 14 13 12 11 11 10 9 8 7 6 5 4 4 4 3 3 2 2 3 2 2 2 1 1 0 1 2 2 2 2 2 1 1 1 2 4 6 7 7 3 1 2 1 1 2 3 2 2 3 4 4 4 4 4 5 7 7 5 5 5 5 4
23 24 25 25 23 21 21 20 21 22 23 24 22 20 19 19 19 17 17 16 15 16 15 14 13 12 12 12 12 11 9 8 7 6 5 5 5 4 4 3 3 2 2 2 2 1 1 0 1 2 2 2 2 2 1 1 1 2 4 6 7 6 2 2 1 0 1 3 3 3 2 2 3 4 4 4 4 5 6 7 6 6 6 5 4
23 23 24 26 25 23 22 20 21 23 26 27 25 23 23 23 21 20 19 18 17 17 16 15 14 13 13 13 12 11 10 9 8 7 6 5 5 5 4 4 3 3 2 2 1 1 1 1 2 2 2 3 3 3 1 1 1 1 3 6 7 4 1 2 1 0 2 3 3 3 3 3 3 3 3 4 4 4 6 7 7 6 6 5 5
23 23 24 25 25 24 23 22 21 23 27 29 27 26 25 23 22 21 20 19 18 17 16 16 15 14 14 13 12 11 11 10 9 8 6 5 5 5 5 5 5 4 3 3 2 2 1 1 2 3 3 3 4 3 2 1 1 1 2 5 5 2 2 2 1 1 2 3 3 3 3 3 3 3 3 4 4 4 4 6 6 5 5 6 5
23 23 24 25 25 24 23 22 21 23 28 30 29 27 26 24 23 22 21 21 20 19 18 17 16 16 15 14 12 11 11 11 10 9 7 5 5 6 7 6 6 5 4 4 3 3 3 2 2 3 3 4 3 2 2 1 1 1 3 4 2 2 3 2 1 1 2 2 4 3 3 3 3 3 3 3 3 4 4 4 4 4 4 6 6
24 24 24 25 26 24 23 23 23 25 28 28 28 27 25 24 23 22 22 23 23 21 20 19 17 17 17 15 13 12 11 12 12 10 8 6 6 7 7 7 7 6 5 5 3 3 3 3 3 3 3 3 2 1 1 2 2 1 1 1 1 3 2 2 2 1 2 3 4 3 3 3 3 3 3 3 3 4 4 3 3 3 4 5 6
24 25 25 26 27 26 25 26 26 28 29 29 28 27 26 25 23 22 22 22 24 23 21 21 19 18 18 16 14 13 12 12 13 12 9 8 7 8 7 7 8 7 6 6 5 4 4 4 4 3 2 2 2 0 1 2 2 2 1 2 3 2 2 3 2 1 2 2 3 4 4 3 3 4 4 4 3 3 4 4 4 4 3 4 4
27 27 27 27 27 27 27 27 27 30 32 32 32 31 31 29 27 25 22 19 22 24 21 20 20 19 19 17 15 13 12 13 14 12 11 9 9 9 9 8 8 8 7 7 6 5 4 5 4 3 2 2 1 0 2 2 2 2 1 2 2 2 2 2 2 2 3 3 3 4 5 4 3 4 5 5 4 4 4 4 4 4 4 4 4
28 28 28 28 27 27 27 26 28 32 34 34 35 35 34 33 30 27 24 18 18 22 19 19 21 20 19 17 16 14 13 14 14 13 12 11 10 10 11 10 9 9 8 8 7 6 6 5 5 3 2 2 1 1 3 3 2 1 1 1 1 1 2 2 3 4 4 5 5 5 5 5 4 5 6 5 4 5 5 5 4 4 4 4 4
28 28 29 29 28 29 29 29 32 34 35 35 36 36 33 32 30 28 25 19 17 20 20 20 21 20 21 19 17 16 14 14 14 14 14 13 13 12 12 12 11 10 9 9 9 8 7 6 5 4 3 3 2 2 3 3 3 3 1 1 1 1 2 2 3 4 5 6 6 6 6 6 5 7 7 5 5 6 6 6 6 4 4 4 5
28 29 30 30 29 29 31 33 35 35 37 37 37 35 32 30 27 23 19 17 15 16 17 19 22 23 22 21 20 18 15 14 14 14 14 14 14 13 14 14 13 12 11 10 10 9 8 7 6 6 5 4 3 2 2 4 5 4 2 1 0 1 1 0 2 3 4 6 7 6 8 8 7 8 9 7 7 8 7 7 7 6 5 5 5
29 29 30 30 29 29 31 33 34 36 37 37 37 35 32 29 26 21 17 16 15 17 21 23 25 26 23 20 21 20 17 15 14 14 14 15 15 14 14 15 15 15 13 12 11 10 9 7 7 6 5 5 4 3 3 3 5 6 4 2 1 1 1 1 2 1 2 5 6 6 7 8 8 9 11 10 9 9 8 8 8 8 7 6 6
29 29 28 29 29 28 30 33 34 34 35 36 36 35 32 30 29 27 22 21 19 21 28 28 25 27 25 22 23 21 18 17 16 16 15 15 15 15 15 15 16 16 15 14 13 10 8 8 7 7 6 6 5 4 3 3 5 6 6 5 3 1 1 2 2 2 3 2 3 5 6 7 8 9 11 10 9 10 10 10 9 8 8 8 7
28 28 28 29 29 29 32 35 34 34 35 35 36 36 34 33 33 29 24 25 24 22 26 26 24 26 26 24 23 21 19 18 18 18 17 16 16 16 16 15 16 16 17 16 15 12 10 9 8 7 8 7 6 5 4 4 5 6 6 6 6 5 5 3 3 3 4 3 4 4 4 6 8 9 10 10 9 10 12 12 10 10 10 9 8
29 29 29 28 28 29 33 35 34 34 34 36 37 37 37 36 34 30 25 26 27 23 22 22 23 24 25 24 24 22 21 20 20 20 19 18 17 17 17 16 16 16 16 16 16 15 13 11 9 9 8 8 7 6 5 5 5 5 5 6 5 5 5 4 4 5 4 4 5 5 4 5 7 7 9 10 9 11 12 13 12 11 11 10 9
29 28 28 27 27 29 31 33 34 33 33 37 38 37 38 37 35 32 29 27 26 24 21 20 21 23 23 23 24 23 22 21 21 22 21 20 18 18 18 18 17 16 15 15 16 17 15 13 11 10 9 8 8 8 7 6 6 6 6 6 5 5 4 4 4 5 4 4 5 6 7 6 6 6 8 9 9 10 12 13 13 13 13 12 10
28 27 28 28 28 29 30 32 34 32 32 36 38 38 38 37 36 35 33 30 28 25 23 20 21 23 22 22 24 24 24 23 23 23 23 22 21 19 19 19 19 18 17 16 16 16 15 14 13 11 10 9 9 8 8 8 8 8 8 7 7 7 6 6 5 4 4 4 4 7 7 7 8 7 8 10 10 10 11 12 13 14 14 13 12
Wind_Direction
146 137 133 134 130 130 131 133 133 129 132 134 134 136 135 131 127 126 125 123 121 119 118 116 115 116 118 120 122 122 120 119 117 117 116 113 110 106 102 99 97 96 95 93 92 92 93 94 93 94 97 101 103 105 103 102 103 102 101 100 103 103 101 100 99 101 104 106 108 104 100 102 106 109 107 106 107 109 110 108 105 100 99 98 96
148 140 133 131 129 131 132 131 129 127 130 131 131 132 131 130 128 128 127 125 122 119 117 116 115 117 122 126 128 126 124 123 121 120 119 116 112 107 102 98 95 92 90 89 88 88 89 91 93 95 97 102 107 110 106 103 102 101 99 98 100 98 98 101 103 106 107 107 106 100 100 103 106 110 108 108 110 111 114 112 105 102 101 98 96
144 138 132 130 127 129 130 128 126 125 127 127 128 129 129 129 129 128 128 127 124 122 120 117 118 125 136 140 135 129 126 121 119 118 114 112 111 109 106 101 95 91 88 87 87 84 85 88 92 92 94 102 107 107 104 104 104 101 98 95 96 94 95 100 103 108 108 105 103 101 100 103 103 106 108 110 112 109 111 111 105 104 103 99 97
143 138 133 130 128 131 129 127 125 124 125 125 126 127 129 129 129 128 128 128 126 125 121 118 127 144 151 143 131 130 128 119 115 112 111 113 114 112 109 103 98 93 88 85 84 82 82 85 87 88 92 100 102 100 98 99 99 96 96 95 95 94 93 98 102 107 109 105 107 107 99 98 99 102 107 109 109 106 107 106 102 102 101 99 97
142 138 135 134 131 134 131 129 127 125 125 124 125 126 128 129 129 129 129 129 129 127 122 124 137 151 146 132 130 133 128 122 119 113 113 116 113 113 109 105 103 97 91 84 81 80 79 80 86 89 93 98 99 99 95 92 91 89 93 94 93 91 89 96 103 102 103 107 114 112 104 105 108 110 112 110 106 104 107 104 100 99 98 97 95
143 138 136 137 134 136 134 131 128 127 127 126 127 127 127 128 128 128 127 127 129 126 119 123 137 142 132 128 131 128 124 126 122 112 114 114 108 109 107 105 104 98 92 84 80 80 79 81 86 88 89 91 93 95 95 94 90 87 91 91 90 89 86 90 97 97 102 111 114 110 109 113 116 118 116 112 109 105 106 102 98 98 96 94 93
143 138 138 139 137 139 137 134 132 131 130 129 128 128 127 126 125 125 124 125 126 118 112 119 133 131 123 127 126 120 122 127 118 109 113 114 109 105 104 103 101 99 92 85 82 79 82 87 88 89 90 89 90 92 98 100 97 93 91 88 88 89 88 87 91 99 109 113 108 107 112 114 114 118 118 113 110 107 105 102 99 97 94 92 90
144 140 139 139 139 141 140 138 136 134 133 131 131 131 129 127 125 125 124 122 118 111 111 121 131 125 121 126 120 118 122 124 117 111 112 113 110 107 108 106 104 102 96 90 85 77 83 90 90 91 93 91 92 98 107 109 106 101 93 88 87 88 88 88 93 100 107 108 104 105 110 110 108 112 113 109 107 104 103 101 97 94 91 90 90
144 140 140 138 140 144 142 140 136 133 132 130 130 129 128 126 124 123 121 117 113 109 112 122 127 121 123 129 120 119 120 118 115 109 110 113 113 112 110 107 106 105 101 97 91 77 78 87 91 91 91 91 95 103 108 105 101 98 96 93 90 90 92 92 94 97 97 100 104 103 105 108 106 108 109 108 106 103 101 99 95 91 91 92 92
144 141 141 138 144 146 143 140 134 132 129 128 127 125 124 122 119 120 118 115 111 109 113 120 121 116 118 124 117 115 114 111 108 104 107 109 110 109 106 107 107 105 105 102 97 84 76 84 90 90 92 96 99 100 96 92 92 96 99 96 94 96 97 94 91 91 92 96 104 103 107 108 105 109 109 108 105 102 100 97 95 93 92 94 94
145 142 141 141 146 146 143 139 134 133 130 128 126 124 122 120 118 117 116 113 110 111 115 118 114 111 113 114 109 108 108 108 106 106 107 105 105 106 106 108 107 105 105 104 101 95 87 87 91 90 91 96 99 99 95 93 97 101 101 97 96 98 98 95 89 87 88 91 98 102 105 106 104 109 110 108 105 101 100 99 97 94 95 95 95
146 142 142 143 147 145 142 139 135 134 131 128 125 124 120 117 117 116 114 112 111 112 115 114 110 110 111 110 107 104 104 106 106 107 106 104 104 104 103 104 105 105 104 104 104 103 100 100 99 96 93 97 102 106 104 103 107 106 102 99 97 97 96 92 90 88 87 90 96 101 101 100 103 106 106 105 103 100 100 101 98 96 96 97 97
147 144 143 144 147 146 142 139 137 135 133 129 126 123 119 118 117 115 114 113 113 113 113 113 110 109 110 110 109 107 106 107 106 106 105 106 106 102 101 101 105 109 106 103 105 106 105 108 107 103 101 104 107 110 110 107 106 102 98 95 92 94 95 91 91 90 87 88 92 97 96 97 103 102 100 99 99 100 102 102 100 98 96 97 99
148 146 144 145 148 146 144 141 138 137 135 130 127 125 122 121 118 117 114 113 113 112 114 113 114 113 114 114 112 111 109 106 106 106 107 108 103 98 100 100 106 111 106 105 108 107 105 105 105 102 100 100 101 105 108 103 97 93 93 91 88 89 93 92 90 89 88 89 90 92 93 95 103 102 99 96 95 98 103 104 101 98 97 100 101
149 147 145 147 149 147 146 142 141 141 138 132 130 128 126 124 121 120 117 115 114 113 114 114 116 114 114 112 110 111 108 106 105 103 101 102 101 98 99 101 109 110 106 109 112 108 102 100 99 93 89 90 93 99 99 94 91 89 89 88 84 82 88 92 90 89 88 90 91 91 92 96 100 99 98 97 97 99 103 103 103 102 101 104 105
149 148 146 148 150 149 148 144 145 143 139 134 132 131 128 128 124 122 119 117 115 114 114 113 114 111 110 108 106 107 106 104 98 97 96 95 97 97 98 102 106 103 103 109 112 109 103 99 96 90 83 83 88 95 93 89 89 84 83 86 82 79 84 90 90 88 87 91 93 92 93 98 99 99 99 100 102 103 105 107 108 109 110 110 110
150 148 147 150 151 149 149 148 148 144 140 136 134 133 131 130 127 123 121 118 116 115 114 115 113 110 109 105 104 102 103 99 88 90 93 90 92 94 96 99 101 98 97 104 110 109 103 101 99 94 83 78 83 88 88 88 88 82 82 89 87 80 82 88 89 88 87 88 90 91 93 96 97 97 99 101 103 105 107 111 111 115 118 118 116
150 149 149 152 153 150 150 152 151 146 142 138 136 134 132 131 128 125 123 119 118 116 115 114 109 107 106 103 101 99 102 97 84 86 89 90 92 93 92 90 92 94 95 99 105 103 98 101 100 95 85 80 83 84 86 90 93 90 84 87 90 86 84 85 87 90 89 86 84 85 87 89 91 93 96 96 99 104 106 111 115 121 125 126 122
151 150 152 153 155 153 153 157 152 147 145 141 138 136 134 133 130 127 125 123 121 118 117 113 108 107 106 104 103 101 101 95 87 87 87 91 93 92 91 86 84 85 89 94 97 97 94 97 94 90 88 86 87 88 90 92 94 92 81 80 87 87 84 83 87 90 88 85 82 83 85 84 85 89 93 95 97 102 106 112 119 125 133 137 127
154 153 155 157 158 157 158 160 155 152 147 142 139 137 136 134 131 129 127 124 123 121 119 115 112 110 109 110 111 108 104 99 94 91 87 88 88 87 86 84 81 81 83 85 89 91 90 90 88 88 86 86 87 85 85 85 87 88 82 76 76 79 83 86 88 89 86 86 85 87 88 84 84 85 89 93 96 101 107 110 111 120 134 143 132
159 159 160 161 161 161 162 161 158 156 150 144 141 138 138 136 133 132 129 127 125 124 122 118 116 114 116 118 115 112 112 111 106 101 93 86 84 81 80 80 80 79 78 80 83 85 86 86 86 88 86 88 85 80 80 79 80 83 78 65 63 72 81 87 87 85 84 85 87 94 95 92 90 88 87 87 89 95 101 100 94 109 127 140 141
162 163 164 165 165 164 166 164 162 159 154 149 144 141 141 138 137 136 133 132 130 128 125 123 123 122 123 123 119 116 116 115 113 109 103 96 91 87 86 84 81 79 77 77 78 78 82 83 84 87 87 86 79 78 80 76 74 77 71 58 57 70 74 77 83 83 85 85 89 99 100 97 95 93 92 88 86 86 87 89 85 95 113 128 148
166 165 165 168 168 168 168 167 165 163 159 154 148 145 145 143 142 141 139 138 137 134 131 131 131 128 128 128 122 118 116 116 118 113 106 102 97 93 91 89 88 85 82 80 79 78 80 85 88 89 82 77 74 75 77 72 68 66 65 60 58 68 71 69 73 80 88 93 97 104 101 97 95 92 92 91 88 84 82 83 82 88 97 112 143
170 166 165 168 171 171 171 170 169 167 163 158 154 151 149 149 147 147 145 144 145 142 141 140 137 133 134 133 128 125 120 118 121 114 107 103 96 94 94 99 103 92 86 86 83 82 82 85 84 81 77 76 75 74 75 73 68 66 68 71 68 70 73 69 70 78 96 109 114 115 106 98 95 90 86 84 81 79 81 82 80 82 86 96 119
169 167 167 171 173 173 173 174 172 171 169 164 160 157 155 154 153 153 151 151 154 153 152 150 146 143 141 139 141 140 131 126 124 115 110 109 101 96 97 104 104 95 89 83 79 81 80 82 78 77 79 80 79 76 78 75 69 68 71 80 79 75 75 72 71 74 100 136 149 140 120 107 96 90 81 75 74 74 76 79 77 73 74 79 87
170 171 171 173 175 174 174 176 176 175 173 170 165 163 161 160 161 161 159 160 163 163 161 160 157 150 146 146 148 148 142 138 135 129 123 118 111 106 109 108 98 93 88 72 69 78 78 80 80 80 81 81 77 70 68 66 64 65 67 70 74 77 77 77 73 71 95 155 172 169 153 144 128 114 103 83 77 79 79 79 76 68 66 69 77
172 174 173 174 176 176 177 177 179 179 178 175 171 170 170 167 169 169 167 168 171 172 169 168 166 157 153 152 149 150 147 147 148 144 140 133 131 129 128 126 113 101 96 82 79 87 86 83 81 80 76 74 67 56 49 41 38 43 46 37 45 68 72 75 76 69 88 162 181 187 183 170 164 161 153 139 114 90 90 90 85 75 67 69 82
174 175 174 175 177 179 179 179 181 182 180 179 175 176 177 175 176 177 177 179 177 180 180 176 173 165 160 158 153 155 153 154 154 149 148 144 147 149 141 138 131 129 124 113 105 105 100 92 85 79 73 68 58 49 39 24 20 19 359 337 351 22 49 71 65 55 84 158 181 193 198 189 186 184 173 161 164 151 122 103 98 93 89 86 89
176 176 176 178 179 180 181 182 184 183 182 182 180 181 182 181 181 182 185 187 185 188 188 182 180 176 169 164 160 162 162 160 158 151 147 145 151 157 149 144 142 138 133 124 130 123 109 98 87 80 75 68 58 48 37 29 18 10 360 330 303 298 326 21 48 46 101 169 184 199 207 205 199 199 190 173 187 187 175 179 142 129 126 117 109
178 176 177 180 180 181 184 186 186 185 184 184 184 185 184 185 186 187 191 191 191 194 192 188 188 187 181 174 171 172 172 170 168 159 150 147 155 161 159 159 158 149 140 137 142 132 115 101 85 78 72 69 60 42 28 25 16 3 0 350 312 259 270 275 293 52 116 166 190 205 215 217 209 210 207 187 198 196 192 211 196 192 192 159 147
180 179 180 181 181 183 186 187 188 187 187 187 187 187 187 189 191 190 193 195 195 196 195 197 197 196 192 184 180 180 181 185 183 174 168 169 168 171 181 181 183 175 154 144 147 136 123 108 93 87 78 80 56 23 18 15 6 357 360 2 353 268 245 256 243 189 147 154 200 209 222 231 220 221 220 203 209 208 205 215 215 222 221 204 194
182 183 182 181 183 185 186 188 190 189 190 190 189 189 189 191 194 195 197 198 198 199 200 202 202 203 200 191 188 187 189 192 190 189 192 196 191 192 198 195 195 189 170 163 169 159 142 126 104 92 79 81 46 7 2 358 352 353 1 8 7 344 246 240 210 193 182 132 227 212 221 234 232 238 233 217 218 223 222 220 223 231 231 227 220
184 184 182 183 185 186 187 189 191 193 193 193 192 191 190 192 194 197 201 200 199 202 202 202 203 205 204 198 195 194 197 201 198 199 206 214 212 209 216 206 195 192 190 187 188 185 165 148 86 66 55 53 36 5 325 302 318 343 350 359 6 1 283 235 205 209 213 94 317 232 227 231 235 246 244 233 227 233 243 237 233 238 240 241 239
183 184 185 185 185 186 188 191 193 195 196 195 196 194 193 192 194 197 201 201 202 204 202 201 203 205 209 208 205 203 205 208 208 210 220 233 240 234 232 224 201 195 205 204 193 193 178 150 18 19 26 30 21 1 330 266 276 330 337 340 356 3 339 222 208 226 309 307 320 281 233 238 245 252 257 258 253 247 249 246 245 252 254 253 254
182 184 186 185 185 186 188 191 194 197 198 200 202 201 199 198 199 202 203 203 205 207 205 203 205 207 212 217 214 212 213 215 217 222 233 246 255 252 240 228 211 201 213 218 209 204 190 141 6 5 14 22 16 359 333 264 263 310 327 330 348 4 5 229 234 251 324 329 331 325 255 241 247 257 261 265 267 261 259 257 257 261 261 262 262
184 183 185 186 187 188 189 192 195 197 201 204 205 205 208 209 210 211 211 211 210 211 210 209 211 211 215 222 222 219 219 221 224 230 242 252 254 252 241 226 216 209 218 227 227 222 210 9 10 11 9 13 16 359 328 249 240 295 320 328 345 357 349 244 267 260 324 335 340 335 322 276 253 255 256 260 265 267 272 270 266 266 267 271 274
186 184 183 186 189 191 192 195 195 198 204 207 208 210 214 217 217 218 218 216 216 217 216 215 216 215 216 221 222 222 223 226 230 235 244 255 255 250 240 227 221 220 227 241 247 249 278 335 351 9 8 2 4 357 349 218 222 292 311 322 334 334 256 224 248 269 330 338 346 341 332 310 293 279 260 265 273 275 282 280 275 274 272 276 278
190 188 186 187 190 190 194 197 196 199 206 210 212 214 217 220 222 224 224 221 220 221 222 221 220 217 216 218 219 222 227 230 234 238 244 255 256 244 235 225 221 222 227 242 254 261 279 312 342 359 352 349 354 349 343 226 199 206 271 311 321 272 190 188 231 306 343 340 344 343 330 310 301 293 277 278 278 272 277 282 284 280 278 281 281
191 191 190 190 191 190 193 197 197 201 207 211 214 215 218 221 224 226 227 225 223 222 224 224 223 219 215 215 218 223 231 234 234 236 241 252 254 239 230 222 219 223 227 238 253 261 273 297 331 341 333 339 346 336 327 249 181 189 247 302 320 177 162 163 197 327 340 333 338 342 327 305 294 290 293 295 288 282 277 275 275 269 270 278 277
191 191 191 193 194 192 193 195 198 203 207 209 211 213 215 219 222 224 225 226 224 223 224 225 225 222 217 215 220 226 233 236 235 235 237 244 248 238 230 224 221 226 231 238 250 260 276 290 306 322 320 322 313 260 244 227 187 174 239 337 102 145 152 166 181 308 326 330 333 333 316 300 298 295 297 306 302 294 288 282 273 264 262 271 273
192 191 191 194 195 194 194 196 199 203 206 207 208 209 211 213 216 219 221 223 224 224 225 226 227 226 221 219 224 229 234 237 234 233 234 238 241 240 235 232 231 235 239 246 255 264 279 284 292 310 304 302 321 157 179 213 191 173 144 86 94 122 157 182 187 224 279 295 305 305 298 290 294 296 297 307 316 306 294 294 292 282 268 263 270
192 192 192 194 195 196 198 199 199 203 207 209 209 210 213 214 215 217 219 220 224 225 225 228 229 228 226 223 227 232 234 236 234 232 235 239 242 245 245 242 240 242 248 252 256 263 273 279 284 297 292 285 327 298 208 207 199 192 165 122 113 124 161 207 215 220 240 252 265 276 281 281 282 285 292 302 314 316 308 302 293 286 278 267 266
193 193 194 194 194 197 198 198 200 204 208 210 211 213 216 217 217 219 220 218 224 226 226 229 229 230 230 229 230 232 231 234 233 234 240 245 247 250 251 250 246 246 250 254 257 261 266 273 272 268 277 276 263 246 223 215 215 193 185 198 178 167 194 213 233 233 236 244 250 257 264 270 271 274 285 296 300 305 310 307 296 283 277 271 264
195 194 194 194 194 196 197 198 202 206 208 211 214 214 216 218 218 221 223 222 227 230 230 233 232 231 231 231 231 230 229 231 234 238 244 249 252 254 254 253 250 250 251 254 257 261 264 269 268 259 261 269 272 255 226 218 212 200 204 194 138 251 226 195 236 241 240 245 248 251 256 261 263 268 277 282 282 290 300 302 302 297 284 277 271
195 195 195 194 195 196 198 201 204 207 209 212 214 213 213 214 213 215 219 221 225 228 229 232 232 230 229 230 230 229 229 231 235 241 246 249 252 254 256 254 252 252 252 253 256 259 263 265 265 263 259 264 273 272 240 218 207 201 202 183 166 253 257 356 287 252 243 252 251 249 255 261 260 263 267 267 274 285 289 292 300 303 298 290 282
197 196 195 195 196 196 198 201 204 206 210 212 212 211 209 208 205 201 199 204 207 214 220 223 225 225 224 226 228 228 229 233 237 241 244 246 248 253 256 256 254 253 252 253 254 257 262 262 263 262 257 261 265 261 249 220 208 205 208 235 289 2 51 5 310 295 268 259 255 253 256 261 260 263 266 263 265 273 277 284 294 299 301 300 294
198 196 196 196 196 194 195 199 202 205 208 209 209 208 206 205 206 203 200 202 203 213 222 222 221 222 222 224 226 227 229 233 237 239 241 243 246 249 255 257 256 254 253 253 251 251 254 256 262 262 258 261 255 248 250 222 210 212 216 232 248 265 306 309 304 319 314 280 268 270 265 262 264 265 266 262 259 262 266 274 282 288 295 297 297
197 195 196 196 194 193 196 200 202 205 206 206 207 207 206 205 207 206 204 209 210 216 223 223 224 225 224 226 228 229 229 232 236 238 239 242 246 248 252 256 256 255 254 252 250 248 248 253 261 262 261 262 251 241 248 241 230 223 221 231 244 259 274 282 283 291 303 303 295 286 271 273 275 270 269 265 256 255 263 269 271 276 284 288 292
196 196 195 194 193 194 198 201 202 204 205 206 207 207 208 207 208 205 205 212 215 218 221 222 224 226 225 227 229 231 231 233 235 237 239 242 246 248 251 255 257 258 255 250 247 247 248 250 255 260 262 263 258 249 247 250 253 243 230 234 242 253 264 268 266 265 276 288 295 302 298 293 286 279 286 284 268 262 264 267 267 267 272 277 281
197 196 193 193 193 193 196 199 201 202 203 206 207 207 208 208 207 206 207 211 213 214 216 218 222 223 223 225 228 230 231 234 235 237 239 241 245 248 250 252 255 258 258 251 247 248 248 249 250 256 258 259 260 259 255 251 256 255 246 242 238 237 244 253 257 257 264 266 277 300 305 304 303 299 304 301 283 271 268 266 266 264 264 268 271
196 194 192 192 193 193 195 198 201 201 202 205 206 206 207 207 208 209 210 210 210 210 211 212 217 219 219 221 225 228 230 233 236 237 238 240 245 248 249 251 252 255 257 255 251 248 246 249 251 251 253 255 256 258 259 253 252 252 248 248 248 246 246 255 264 266 276 281 283 299 305 310 310 301 301 306 298 282 273 266 264 262 262 265 266